Location: *
(13.2257°S, 48.7193°W)
Time: 23:59:13
(UTC+00:00)

Hubble Space Telescope - Visible Passes

Search period start: 16 April 2026 00:00
Search period end: 26 April 2026 00:00
Orbit: 474 x 477 km, 28.5° (Epoch: 16 April)

Date Brightness Start Highest point End Pass type
(mag) Time Alt. Az. Time Alt. Az. Time Alt. Az.
16 Apr 1.5 21:42:10 10° WSW 21:45:46 44° NNW 21:49:22 10° NE visible
22 Apr 2.5 08:34:20 10° NNW 08:37:30 26° NNE 08:40:40 10° E visible
23 Apr 2.5 08:03:47 14° NNW 08:06:16 26° NNE 08:09:27 10° E visible
24 Apr 2.4 07:35:08 25° NNE 07:35:08 25° NNE 07:38:13 10° E visible
25 Apr 3.7 07:06:22 13° E 07:06:22 13° E 07:06:58 10° E visible
25 Apr 0.8 08:40:27 14° W 08:43:28 48° SSW 08:47:07 10° SE visible
